VTBO

Details ICAO VTBO (TDX)
Name Trat Bangkok Air
Region Thailand
Timezone Asia/Bangkok (UTC+7.0)
Plans Departing 12
Arriving 14
Stats Elevation 85 ft / 26 m (AMSL)
Location 12.275337° 102.319779°
Runways 1
Magnetic Variation 0.502° W
Sunrise 2018-05-27 22:46:09 UTC / 2018-05-28 05:46:09 Local
Sunset 2018-05-28 11:32:39 UTC / 2018-05-28 18:32:39 Local
Advertisement - Login to hide

Runways

ID Width Length Bearing (true) Bearing (mag) Surface Threshold Offset Overrun Length
05 151 ft / 46 m 5,920 ft / 1,804 m 51.11° 51.61° Asphalt 0 ft / 0 m 180 ft / 55 m
23 151 ft / 46 m 5,920 ft / 1,804 m 231.11° 231.61° Asphalt 0 ft / 0 m 210 ft / 64 m

Map

Weather


0- 5 10 15 20 25 30 35+ Temperature / ° C

Clouds and Precipitation
Forecast for 2018-05-27 18:00 UTC. Updated 3 hours ago

Ground ~20,000 ft ~40,000 ft Winds

METAR

Not found

TAF

TAF VTBO 271700Z 2718/2818 VRB02KT 7000 FEW020 SCT100 BECMG 2721/2723 08005KT 5000 BR BECMG 2801/2803 14008KT 8000 NSW TEMPO 2807/2813 VRB15KT 5000 TSRA FEW018CB SCT030

Frequencies

Tower 122.90 MHz TWR
Approach 118.60 MHz APP
Warning: Do not use this data for real-world aviation or navigation. No guarantee of current accuracy is given.